Regional Weather Roundup
Issued by NWS

Home | Current Version | Previous Version | Text Only | Print | Product List | Glossary Off
Versions: 1 2 3 4 5 6 7 8 9 10 11 12 13 14 15 16 17 18 19 20 21 22 23 24 25 26 27 28 29 30 31 32 33 34 35 36 37 38 39 40 41 42 43 44 45 46 47 48 49 50

000
ASUS43 KLMK 010010
RWRKY
KENTUCKY REGIONAL WEATHER ROUNDUP
NATIONAL WEATHER SERVICE LOUISVILLE KY
800 PM EDT SAT APR 30 2016

NOTE "FAIR" INDICATES FEW OR NO CLOUDS BELOW 12,000 FEET
WITH NO SIGNIFICANT WEATHER AND/OR OBSTRUCTIONS TO VISIBILITY.

KYZ001>023-026-027-061>063-070>075-010100-
WESTERN AND SOUTH CENTRAL KENTUCKY

CITY           SKY/WX    TMP DP  RH WIND       PRES   REMARKS
PADUCAH        CLEAR     72  62  71 S6        29.81R
HENDERSON      CLOUDY    70  63  78 SE7       29.82S
OWENSBORO      CLOUDY    69  67  93 SE7       29.85S
HOPKINSVILLE   MOCLDY    68  65  89 NW3       29.87R
BOWLING GREEN  CLOUDY    69  66  90 E6        29.87S
GLASGOW        RAIN      67  67 100 SE5       29.90S
$$

KYZ024-025-028>034-038-045-046-053-010100-
NORTH CENTRAL KENTUCKY

CITY           SKY/WX    TMP DP  RH WIND       PRES   REMARKS
LOUISVILLE/SDF LGT RAIN  66  63  90 SE7       29.89F
LOUISVILLE/LOU LGT RAIN  66  62  87 SE3       29.90F
FORT KNOX      MOCLDY    64  63  94 E5        29.88S
$$

KYZ035>037-039>044-047>052-055>060-089>105-010100-
NORTHEAST KENTUCKY

CITY           SKY/WX    TMP DP  RH WIND       PRES   REMARKS
LEXINGTON      CLOUDY    63  59  87 S5        29.94R
COVINGTON      LGT RAIN  60  59  96 SE6       29.92S
FRANKFORT      LGT RAIN  64  60  87 CALM      29.92R
$$

KYZ054-064>069-076>088-106>120-010100-
SOUTHEAST KENTUCKY

CITY           SKY/WX    TMP DP  RH WIND       PRES   REMARKS
JACKSON        CLOUDY    61  58  90 E6        29.95S
LONDON         MOCLDY    63  60  90 CALM      29.94R
SOMERSET       LGT RAIN  63  63 100 CALM      29.95R
MIDDLESBORO    LGT RAIN  63  62  97 CALM      29.98S
MONTICELLO     CLOUDY    66  63  90 VRB7      29.94R
$$





USA.gov is the U.S. government's official web portal to all federal, state and local government web resources and services.